EW8053 Weather Reports


time (UTC)temp
F
wind
direction
speed
knots
gust
knots
rain 1hr
in
rain 24hr
in
rain mn
in
humidity
%
barometer
mb
20260507011603 48 0 0.0 0.0 0.00 0.69 0.39 67 1014.6
20260507010058 50 0 0.0 0.0 0.00 0.69 0.39 64 1014.5
20260507004557 51 0 0.0 0.9 0.00 0.84 0.39 61 1014.2
20260507003059 52 0 0.0 1.7 0.00 0.84 0.39 59 1013.8
20260507001558 52 303 0.0 3.5 0.00 0.84 0.39 58 1013.7
20260507000058 53 0 0.9 2.6 0.00 0.84 0.39 57 1013.7
20260506234605 53 0 0.0 3.5 0.00 0.97 0.39 58 1013.5
20260506233100 54 306 0.0 2.6 0.00 0.97 0.39 58 1013.6
20260506231601 54 293 0.0 2.6 0.00 0.97 0.39 55 1013.6
20260506230100 54 204 1.7 7.8 0.00 0.97 0.39 54 1013.8
20260506224600 54 300 0.9 4.3 0.00 1.14 0.39 53 1014.0
20260506223059 54 302 1.7 3.5 0.00 1.14 0.39 54 1014.0
20260506221557 54 309 0.9 5.2 0.00 1.14 0.39 55 1014.0
20260506220059 54 248 0.9 4.3 0.00 1.14 0.39 55 1014.2
20260506214557 54 314 0.9 5.2 0.00 1.16 0.39 52 1013.9
20260506213127 54 290 2.6 7.0 0.00 1.16 0.39 52 1013.7
20260506211620 54 285 1.7 7.0 0.00 1.16 0.39 49 1013.4
20260506204559 55 304 1.7 6.1 0.00 1.33 0.39 50 1013.4
20260506203102 55 291 1.7 6.1 0.00 1.33 0.39 52 1013.4
20260506201610 55 0 0.9 7.8 0.00 1.33 0.39 54 1013.3
20260506200101 55 306 1.7 6.1 0.00 1.33 0.39 51 1013.1
20260506194623 56 302 0.9 5.2 0.00 1.34 0.39 53 1013.2
20260506193057 56 307 0.9 6.1 0.00 1.34 0.39 51 1013.3
20260506191605 56 320 2.6 7.0 0.00 1.34 0.39 54 1013.3
20260506190059 56 308 2.6 7.0 0.00 1.34 0.39 51 1013.3
20260506184607 58 333 1.7 7.8 0.00 1.34 0.39 50 1013.1
20260506183104 58 308 1.7 5.2 0.00 1.34 0.39 52 1013.0
20260506181559 59 297 1.7 7.0 0.00 1.34 0.39 53 1013.1
20260506174555 58 310 2.6 7.0 0.00 1.34 0.39 49 1013.2
20260506173108 59 285 1.7 6.1 0.00 1.34 0.39 51 1013.3
20260506171600 58 288 0.9 7.8 0.00 1.34 0.39 55 1013.3
20260506170113 58 285 0.9 8.7 0.00 1.34 0.39 52 1013.2
20260506164601 58 287 0.9 6.1 0.00 1.34 0.39 60 1013.0
20260506163111 57 317 0.9 5.2 0.00 1.34 0.39 59 1013.3
20260506161603 57 305 0.9 4.3 0.00 1.34 0.39 59 1013.0
20260506160111 55 319 1.7 5.2 0.00 1.34 0.39 64 1013.2
20260506154605 54 306 0.9 8.7 0.00 1.34 0.39 64 1013.2
20260506153109 54 273 1.7 7.8 0.00 1.34 0.39 65 1012.8
20260506151609 53 308 0.9 5.2 0.00 1.34 0.39 68 1012.7
20260506150100 52 302 0.9 8.7 0.00 1.34 0.39 70 1012.5
20260506144607 51 296 0.9 5.2 0.00 1.34 0.39 73 1012.3
20260506143108 50 267 1.7 3.5 0.00 1.34 0.39 75 1012.4
20260506141600 48 311 0.9 4.3 0.00 1.34 0.39 79 1012.4
20260506140056 47 307 1.7 4.3 0.00 1.34 0.39 82 1012.3
20260506134557 46 299 0.9 4.3 0.00 1.34 0.39 86 1012.0
20260506133056 46 0 0.9 5.2 0.00 1.34 0.39 88 1011.7
20260506131600 45 304 0.9 5.2 0.00 1.34 0.39 89 1012.0
20260506124558 44 0 0.9 4.3 0.00 1.34 0.39 90 1011.6
20260506123100 44 304 0.9 2.6 0.00 1.34 0.39 91 1011.6
20260506121600 44 290 0.0 3.5 0.00 1.34 0.39 91 1011.3
20260506120059 43 304 0.0 2.6 0.00 1.34 0.39 91 1010.5
20260506114559 43 307 0.9 2.6 0.00 1.34 0.39 92 1010.4
20260506113059 43 315 0.0 3.5 0.00 1.34 0.39 92 1010.2
20260506111603 43 308 0.0 1.7 0.00 1.34 0.39 92 1010.1
20260506104602 43 307 0.9 3.5 0.00 1.36 0.39 92 1009.1
20260506103129 43 302 0.9 4.3 0.00 1.36 0.39 92 1009.6
20260506101603 43 0 0.0 4.3 0.00 1.36 0.39 93 1009.2
20260506100100 43 0 0.0 4.3 0.00 1.36 0.39 93 1009.1
20260506094606 43 312 0.0 3.5 0.00 1.41 0.39 93 1008.7
20260506093059 43 0 0.0 0.9 0.01 1.41 0.39 93 1008.1
20260506091606 43 0 0.0 2.6 0.02 1.41 0.39 93 1008.5
20260506090101 43 0 0.0 1.7 0.03 1.41 0.39 93 1008.3
20260506084617 43 0 0.0 4.3 0.04 1.41 0.39 93 1008.5
20260506083102 43 223 0.9 6.1 0.06 1.40 0.38 93 1008.5
20260506081608 43 278 2.6 9.6 0.05 1.39 0.37 93 1008.7
20260506073101 44 281 0.9 7.8 0.02 1.34 0.32 93 1008.3
20260506071600 44 309 2.6 7.8 0.09 1.34 0.32 93 1007.9
20260506061603 44 304 0.9 3.5 0.14 1.25 0.23 93 1008.1
20260506050110 46 321 0.9 5.2 0.06 1.08 0.06 93 1008.1
20260506044558 47 320 0.0 6.1 0.06 1.08 0.06 93 1008.0
20260506043106 47 327 0.9 4.3 0.04 1.05 0.04 93 1008.3
20260506041558 47 83 0.9 9.6 0.01 1.03 0.01 93 1008.2
20260506040107 48 243 0.0 4.3 0.00 1.02 0.00 93 1008.0
20260506034605 48 0 0.0 4.3 0.04 1.02 1.02 93 1008.0
20260506033059 48 319 0.0 4.3 0.08 1.02 1.02 93 1008.1
20260506031600 48 329 0.0 2.6 0.13 1.02 1.02 93 1008.1
20260506030058 48 122 0.0 4.3 0.15 1.02 1.02 92 1008.3
20260506024559 48 306 0.9 2.6 0.13 0.98 0.98 92 1008.9
20260506023057 48 272 0.9 7.0 0.11 0.94 0.94 92 1008.9
20260506021606 49 315 0.9 7.8 0.11 0.89 0.89 92 1009.0
20260506020059 50 0 0.9 7.8 0.15 0.87 0.87 92 1008.6
20260506014558 50 302 0.9 4.3 0.16 0.85 0.85 92 1008.1
20260506013107 51 304 2.6 7.0 0.19 0.83 0.83 91 1008.2